Location: Unspecified
(40.7945°N, 111.1337°W)
Time: 21:46:40
(UTC-06:00)

A-11 Canister half - All Passes

Search period start: 15 June 2019 00:00
Search period end: 25 June 2019 00:00
Orbit: 1516 x 1684 km, 47.2° (Epoch: 14 June)

Date Brightness Start Highest point End Pass type
(mag) Time Alt. Az. Time Alt. Az. Time Alt. Az.
15 Jun - 11:55:59 10° S 12:04:23 32° SE 12:12:34 10° ENE daylight
15 Jun - 13:58:41 10° WSW 14:08:34 86° SSE 14:18:08 10° ENE daylight
15 Jun - 16:04:34 10° W 16:14:08 60° N 16:23:24 10° ENE daylight
15 Jun - 18:10:33 10° WNW 18:20:04 71° NNE 18:29:19 10° ESE daylight
15 Jun - 20:15:50 10° WNW 20:24:53 56° SW 20:33:47 10° SE daylight
15 Jun - 22:23:43 10° W 22:28:08 14° WSW 22:32:33 10° SSW visible
16 Jun - 11:33:20 10° S 11:41:33 30° SE 11:49:32 10° ENE daylight
16 Jun - 13:35:44 10° SW 13:45:39 83° SSE 13:55:13 10° ENE daylight
16 Jun - 15:41:32 10° W 15:51:09 61° N 16:00:28 10° ENE daylight
16 Jun - 17:47:35 10° WNW 17:57:07 69° NNE 18:06:22 10° E daylight
16 Jun - 19:52:53 10° WNW 20:02:01 59° SW 20:11:00 10° SE daylight
16 Jun - 22:00:20 10° W 22:05:21 16° SW 22:10:22 10° SSW visible
17 Jun - 11:10:41 10° S 11:18:41 28° SE 11:26:29 10° ENE daylight
17 Jun - 13:12:48 10° SW 13:22:44 79° SSE 13:32:18 10° ENE daylight
17 Jun - 15:18:31 10° W 15:28:11 62° N 15:37:31 10° ENE daylight
17 Jun - 17:24:37 10° WNW 17:34:10 67° NNE 17:43:26 10° E daylight
17 Jun - 19:29:56 10° WNW 19:39:09 62° SW 19:48:11 10° SE daylight
17 Jun - 21:37:01 10° W 21:42:33 18° SW 21:48:05 10° SSW visible
18 Jun - 10:48:05 10° S 10:55:50 26° SE 11:03:26 10° ENE daylight
18 Jun - 12:49:53 10° SW 12:59:48 76° SSE 13:09:23 10° ENE daylight
18 Jun - 14:55:29 10° W 15:05:12 63° N 15:14:35 10° ENE daylight
18 Jun - 17:01:38 10° WNW 17:11:13 66° NNE 17:20:28 10° E daylight
18 Jun - 19:06:58 10° WNW 19:16:17 66° SW 19:25:22 10° SE daylight
18 Jun - 21:13:47 10° W 21:19:46 19° SW 21:25:44 10° SSW daylight
19 Jun - 10:25:30 10° S 10:33:01 25° SE 10:40:20 10° E daylight
19 Jun - 12:26:58 10° SW 12:36:53 73° SE 12:46:28 10° ENE daylight
19 Jun - 14:32:27 10° W 14:42:13 64° NNW 14:51:38 10° ENE daylight
19 Jun - 16:38:40 10° WNW 16:48:15 65° NNE 16:57:31 10° E daylight
19 Jun - 18:44:01 10° WNW 18:53:24 69° SW 19:02:32 10° SE daylight
19 Jun - 20:50:35 10° W 20:56:58 21° SW 21:03:19 10° S daylight
20 Jun - 10:02:58 10° S 10:10:10 23° SE 10:17:13 10° E daylight
20 Jun - 12:04:03 10° SW 12:13:58 70° SE 12:23:34 10° ENE daylight
20 Jun - 14:09:26 10° W 14:19:14 65° NNW 14:28:42 10° ENE daylight
20 Jun - 16:15:40 10° WNW 16:25:16 64° NNE 16:34:33 10° E daylight
20 Jun - 18:21:04 10° WNW 18:30:31 72° SW 18:39:42 10° SE daylight
20 Jun - 20:27:25 10° W 20:34:10 23° SW 20:40:51 10° S daylight
21 Jun - 09:40:28 10° S 09:47:19 21° SE 09:54:03 10° E daylight
21 Jun - 11:41:11 10° SW 11:51:03 67° SE 12:00:38 10° ENE daylight
21 Jun - 13:46:25 10° W 13:56:16 67° NNW 14:05:46 10° ENE daylight
21 Jun - 15:52:40 10° WNW 16:02:19 63° N 16:11:35 10° E daylight
21 Jun - 17:58:07 10° WNW 18:07:38 76° SSW 18:16:51 10° SE daylight
21 Jun - 20:04:17 10° WNW 20:11:21 25° SW 20:18:21 10° S daylight
22 Jun - 09:18:01 10° SSE 09:24:29 19° SE 09:30:52 10° E daylight
22 Jun - 11:18:18 10° SW 11:28:09 64° SE 11:37:42 10° ENE daylight
22 Jun - 13:23:23 10° W 13:33:17 68° NNW 13:42:50 10° ENE daylight
22 Jun - 15:29:40 10° WNW 15:39:19 62° N 15:48:38 10° E daylight
22 Jun - 17:35:10 10° WNW 17:44:44 79° SSW 17:53:59 10° SE daylight
22 Jun - 19:41:11 10° WNW 19:48:33 27° SW 19:55:49 10° S daylight
23 Jun - 08:55:38 10° SSE 09:01:40 18° SE 09:07:36 10° E daylight
23 Jun - 10:55:26 10° SW 11:05:14 61° SE 11:14:46 10° ENE daylight
23 Jun - 13:00:22 10° W 13:10:18 70° NNW 13:19:54 10° ENE daylight
23 Jun - 15:06:39 10° WNW 15:16:21 61° N 15:25:40 10° E daylight
23 Jun - 17:12:12 10° WNW 17:21:50 82° SSW 17:31:07 10° SE daylight
23 Jun - 19:18:06 10° WNW 19:25:45 29° SW 19:33:15 10° S daylight
24 Jun - 08:33:19 10° SSE 08:38:50 16° ESE 08:44:17 10° E daylight
24 Jun - 10:32:34 10° SW 10:42:20 57° SE 10:51:50 10° ENE daylight
24 Jun - 12:37:20 10° WSW 12:47:20 71° NNW 12:56:59 10° ENE daylight
24 Jun - 14:43:40 10° WNW 14:53:21 61° N 15:02:42 10° E daylight
24 Jun - 16:49:15 10° WNW 16:58:55 86° SSW 17:08:15 10° ESE daylight
24 Jun - 18:55:02 10° WNW 19:02:55 31° SW 19:10:39 10° S daylight
